User: anonymous   Login
Location: Anuling
(14.1239°N, 120.8922°E)
Time: 23:43:47
(UTC+00:00)
Language:

OAO 3 Copernicus - Orbit

View from above orbital plane
View from above orbital plane
View from above satellite
View from above satellite

Ground track
Ground track

The orbit is defined by the following mean orbital elements,

1 06153U          26064.76620433 +.00000000 +00000-0 +11557-3 0 00009
2 06153  35.0064 319.6697 0006095 133.4673 269.7059 14.59994443    03
Epoch (UTC): 05 March 2026 18:23:20
Eccentricity: 0.0006095
inclination: 35.0064°
perigee height: 689 km
apogee height: 698 km
right ascension of ascending node: 319.6697°
argument of perigee: 133.4673°
revolutions per day: 14.59994443
mean anomaly at epoch: 269.7059°

The dashed part of the orbit path shows where the satellite is in the earth's shadow,  

DLR